Погода в Пскове

Погода в Пскове : погода сейчас, прогноз погоды и архив. Всё, что Вы хотите узнать о погоде в Пскове!

Хотите узнать прогноз погоды в Пскове? Тогда Вам сюда: Погода в Пскове

Поиск расширенной информации на нашем сайте:

Другие новости

Новости СМИ2

Главная страница сайта

Новости сайта

02.10.2013

Напоминаем, что на нашем новом сайте вы можете получить высокодетализированные прогнозы погоды по пунктам России, СНГ и мира (включающие важные для авиации метеовеличины, такие как направление и скорость ветра, видимость, явления погоды, количество и форма облачности, нижняя и верхняя граница облачности), а также ознакомиться с разнообразными материалами по авиационной метеорологии и подборкой полезных ссылок на эту тему.

Сайт Метеоцентр.Азия посвящён разработке технологий оптимизации авиаметеорологического обслуживания, включая проектирование и перспективное создание нескольких автоматизированных авиаметеорологических систем:
- система выпуска высокодетальных прогностических карт явлений погоды для нижнего воздушного пространства по России и ближнему зарубежью;
- система верификации прогнозов TAF (выпускаемых синоптиками официальных АМСГ РФ и ближнего зарубежья) и AUTOTAF (выпускаемых сайтом Метеоцентр.Азия) - выявление ошибок, онлайн-сопоставление с фактической погодой METAR, автоматическое внесение коррективов в прогнозы при резком отклонении фактической погоды от прогноза, подсчёт оправдываемости прогнозов по элементам и в целом;
- система обработки, анализа и отображения авиаметеорологической информации для применения провайдерами метеорологической информации.

Рекомендуем: Видео-обзоры новых игр видео обзор новых компьютерных игр.

Погода в Пскове - сегодня

Время (UTC), дата Ветер
(°,м/с) 
Видим.   Явления Облачность Т
(°С)
Тd
(°С)
f(%) Тe
(°С)
Pmin
(гПа)
dP
(гПа)
Po
(мм)
O2
(г/м3)
Тmin Tmax R s Состояние
почвы
12 23.02.17 230 (ЮЗ) 20000 м  в посл. час дождь  10/10 600 м 
[Frnb]
+2.3 +1.3 93 +2  979.6  1.2  731  292           
15 23.02.17 270 (З) 5-10{12}  4000 м  ливневой снег  10/10 600 м кучево-дожд. 
[Cb cap]
+1.6 -0.5 86 -1  982.2  2.6  733  293      0.8     
18 23.02.17 260 (З) 4{13}  20000 м  {ливн. осадки}  8/0 средняя 
[Ac cast]
-0.7 -5.7 69 -3  984.7  2.4  734  297    +3.1     
21 23.02.17 240 (ЮЗ) 3{10}  20000 м    10/10 600 м кучево-дожд. 
[Cb cap]
-1.5 -6 71 -3  986.3  1.5  736  299           
00 24.02.17 210 (ЮЗ) 20000 м    ясно 
-3.7 -7.4 75 -3  986.9  0.6  736  301           
03 24.02.17 200 (Ю) 20000 м    ясно 
-4 -6.8 81 -4  986.3  -0.6  736  301  -4    0.3     
06 24.02.17 120 (ЮВ) 20000 м    9/6 600 м кучево-дожд., средняя 
[Cb cap|Ac trans]
-6.3 -7.4 92 -6  985.3  -1.1  735  304  -6.4      <0.5  равномерный
мокрый или
старый снег
100% 
09 24.02.17 310 (СЗ) 20000 м    8/0 средняя, верхняя 
[Ac trans|Ci fib]
-0.7 -5.6 69 984.7  -1.1  734  297           
12 24.02.17 310 (СЗ) 20000 м    8/3 600 м верхняя 
[Cu hum|Ci fib]
+0.8 -7.4 54 985.5  0.8  735  296           
15 24.02.17 300 (СЗ) 20000 м    9/9 600 м 
[Sc]
-1.1 -8.1 59 -4  988.2  2.6  737  299           
18 24.02.17 270 (З) 20000 м    10/10 600 м 
[Sc]
-2.3 -6.7 72 -5  990.5  2.2  739  301    +1.2       
21 24.02.17 260 (З) 5{10}  20000 м  {ливн. осадки}  ясно 
-2.4 -7.6 67 -6  991.7  1.2  740  301           
00 25.02.17 250 (З) 5-11{11}  20000 м  {ливн. осадки}  ясно 
-2.6 -7.6 68 -6  992.2  0.5  740  302           
03 25.02.17 270 (З) 4{11}  10 км  слаб. ливневой снег  10/10 600 м кучево-дожд. 
[Cb cap]
-3.2 -4.3 92 -6  993.4  1.1  741  303  -3.2    0.3     
06 25.02.17 320 (СЗ) 2{12}  4000 м    10/10 600 м кучево-дожд. 
[Cb cap]
-4.5 -5.5 93 -6  995.6  2.2  743  305  -4.8    равномерный
сухой снег
100% 
09 25.02.17 310 (СЗ) 20000 м  в посл. час ливневой снег  8/8 600 м кучево-дожд. 
[Cb cap]
-2.9 -8.9 63 -5  998.2  2.6  744  304           
12 25.02.17 310 (СЗ) 3{11}  20000 м  {ливн. осадки}  10/10 600 м кучево-дожд. 
[Cb cap]
-4.2 -9.7 65 -6  1000.8  2.6  746  306           
15 25.02.17 300 (СЗ) 10 км  слаб. ливневой снег  10/10 600 м кучево-дожд. 
[Cb cap]
-5.2 -7.6 83 -7  1003.1  2.3  748  308         
18 25.02.17 260 (З) 20000 м  {ливн. осадки}  8/8 600 м кучево-дожд. 
[Cb cap]
-5 -7 86 -7  1004.9  1.7  749  308    -2.9  0.0     
21 25.02.17 250 (З) 20000 м    8/8 600 м кучево-дожд. 
[Cb cap]
-4.7 -7.6 80 -6  1005.8  0.9  750  308           
00 26.02.17 250 (З) н/о    н/о 
-5.4 -7.1 88 -7  1006.4  0.5  751  309           
03 26.02.17 210 (ЮЗ) 20000 м    10/10 600 м кучево-дожд. 
[Cb cap]
-5.8 -6.7 93 -7  1005.4  -0.9  750  309  -7.2    0.0     
06 26.02.17 190 (Ю) 20000 м    10/10 600 м кучево-дожд. 
[Cb cap]
-4.7 -6.5 87 -4  1003.9  -1.5  749  308  -7.2      равномерный
сухой снег
100% 
09 26.02.17 160 (Ю) 4000 м  снег  10/10 600 м 
[Frnb]
-2.3 -3.5 91 -5  1001.1  -2.7  747  304           
12 26.02.17 180 (Ю) 10 км  слаб. снег  10/10 600 м 
[Frnb]
-1.1 -1.8 95 -2  998.1  -2.9  744  301           
Время (UTC), дата Ветер
(°,м/с) 
Видим.   Явления Облачность Т
(°С)
Тd
(°С)
f(%) Тe
(°С)
Pmin
(гПа)
dP
(гПа)
Po
(мм)
O2
(г/м3)
Тmin Tmax R s Состояние
почвы

Для получения пояснительной информации подведите курсор к названию столбца.

ПОГОДА в Пскове - архив

Всё, что Вы хотите узнать о погоде в Пскове - удобно и подробно!

Выберите нужную дату (начиная с 1 января 2015* года) и нажмите кнопку "Найти".
Будут отображены архивные сводки погоды по пункту Псков, начиная с указанной даты.


Отображать данные в формате CSV (для использования в таблицах Excel)


Внимание! Наш архив погоды предназначен исключительно для личного некоммерческого использования в познавательных целях. Если Вам необходимы официальные справки о состоянии погоды (для производственных, юридических, коммерческих и т.п. целей), обращайтесь в органы Росгидромета.

*Примечание: данная дата относится к архиву по метеостанциям СССР (Россия, СНГ, Балтия).
Архив по метеостанциям Зарубежной Европы и Азии (кроме Китая) хранится 10 дней, по другим регионам земного шара (Китай, Африка, Америка, Австралия, Океания) - 1 день.

Псков - район местоположения метеостанции


Название, широта, долгота, высота метеостанции:
Псков (город) 57.8°ш. 28.5°д. 44 м над ур. моря [Российская Федерация]

Дополнительная информация

В oтличие oт бoльшинства пoгoдных сайтoв мы публикуем пoдрoбную метеoинфoрмацию в детальнoм прoфессиoнальнoм фoрмате.

Характеристики температуры и влажнoсти вoздуха измеряются на высoте 2 м в тени вдали oт зданий и деревьев.
Скoрoсть ветра измеряется на высoте 10 м (на урoвне рoста челoвека скoрoсть ветра ниже в 1.5-2 раза). Если метеoстанция нахoдится в гoрoде или в лесу, тo скoрoсть ветра занижена на 2-4 м/с пo сравнению с oткрытым местoм. Скoрoсть ветра над акватoриями крупных рек и oзёр, а также на вершинах хoлмoв на 2-5 м/с выше, чем в oбычных услoвиях.
Атмoсфернoе давление в разных тoчках местнoсти мoжет значительнo oтличаться oт давления на метеoстанции, в зависимoсти oт услoвий рельефа (при пoдъёме на 10 м давление пoнижается примернo на 1 мм рт.ст.).